HAVELSAT (42700 NORAD) Tracking and Keplerian Element Data

This shows tracking and keplerian element data for the satellite.

Feedback or suggestion? Click here.




ElementValue
Catalog42700
NameHAVELSAT
Epoch Orbit10250
Epoch Day58.65367074
Epoch Year2019
RAAN103.5658
Inclination51.6026
Eccentricity5.34E-05
Argument of Perigee29.5264
Mean Anonmoly63.1633
Mean Motion16.39608965
Decay Rate0.07524467
L11 42700U 98067LH 19058.65367074 .07524467 12395-4 57474-3 0 9993
L22 42700 51.6026 103.5658 0000534 29.5264 63.1633 16.39608965102506



Live tracking and technical data element details for HAVELSAT (NORAD 42700). HAVELSAT can be tracked NOW for your location showing map with azimuth and elevation plus other details from your city location.







IsCatalogInMostPopularTable: catalog: 42700, numindb: 847
Update: records affected: 1



GetName: 42700 HAVELSAT

Hit Count: updated at: Fri, 14 Feb 2025 14:53:10 GMT